Crumpler, NC

7:06 AM EST on February 22, 2017 (GMT -0500)
Ashe County

Weather History for KGEV - March, 2012

Change the Weather History Date:

Monday, March 26, 2012

  Actual Average Record
Temperature  
Mean Temperature 54 °F -  
Max Temperature 60 °F 56 °F 74 °F (1967)
Min Temperature 48 °F 29 °F 16 °F (2014)
Degree Days  
Heating Degree Days 11    
Growing Degree Days 4 (Base 50)    
Moisture  
Dew Point 40 °F    
Average Humidity 58    
Maximum Humidity 76    
Minimum Humidity 39    
Precipitation  
Precipitation 0.00 in - - ()
Sea Level Pressure  
Sea Level Pressure 30.01 in    
Wind  
Wind Speed 13 mph (NNW)    
Max Wind Speed 22 mph    
Max Gust Speed 36 mph    
Visibility 10 miles    
Events      
Averages and records for this station are not official NWS values.
T = Trace of Precipitation, MM = Missing Value Source: NWS Daily Summary

Daily Weather History Graph

Daily Weather History Graph

Search for Another Location

Airport or City:

Trip Planner

Search our weather history database for the weather conditions in past years. The results will help you decide how hot, cold, wet, or windy it might be!

Date:

Astronomy

Mar. 26, 2012 Rise Set
Actual Time 7:19 AM EDT 7:43 PM EDT
Civil Twilight 6:53 AM EDT 8:08 PM EDT
Nautical Twilight 6:23 AM EDT 8:39 PM EDT
Astronomical Twilight 5:52 AM EDT 9:10 PM EDT
Moon 9:15 AM EDT (3/26) 11:44 PM EDT (3/26)
Length of Visible Light 13h 14m
Length of Day
12h 23m
Waxing Crescent, 14% of the Moon is Illuminated
Mar 26
Waxing Crescent
Mar 30
First Quarter
Apr 6
Full
Apr 13
Last Quarter
Apr 21
New

Hourly Weather History & Observations

Time (EDT) Temp. Dew Point Humidity Pressure Visibility Wind Dir Wind Speed Gust Speed Precip Events Conditions
12:15 AM 51.8 °F 44.6 °F 76% 29.93 in 10.0 mi NNW 15.0 mph 26.5 mph N/A   Mostly Cloudy
12:35 AM 51.8 °F 42.8 °F 71% 29.93 in 10.0 mi NNW 16.1 mph 24.2 mph N/A   Mostly Cloudy
12:55 AM 51.8 °F 44.6 °F 76% 29.93 in 10.0 mi NNW 12.7 mph - N/A   Mostly Cloudy
1:15 AM 51.8 °F 42.8 °F 71% 29.93 in 10.0 mi NNW 15.0 mph 20.7 mph N/A   Mostly Cloudy
1:35 AM 51.8 °F 42.8 °F 71% 29.93 in 10.0 mi NNW 13.8 mph 24.2 mph N/A   Scattered Clouds
1:55 AM 51.8 °F 42.8 °F 71% 29.93 in 10.0 mi NNW 11.5 mph 23.0 mph N/A   Scattered Clouds
2:15 AM 51.8 °F 42.8 °F 71% 29.93 in 10.0 mi NNW 9.2 mph 23.0 mph N/A   Mostly Cloudy
2:35 AM 50.0 °F 42.8 °F 76% 29.93 in 10.0 mi NNW 12.7 mph 23.0 mph N/A   Scattered Clouds
2:55 AM 50.0 °F 42.8 °F 76% 29.93 in 10.0 mi NNW 15.0 mph 20.7 mph N/A   Scattered Clouds
3:15 AM 50.0 °F 42.8 °F 76% 29.93 in 10.0 mi NNW 18.4 mph 26.5 mph N/A   Scattered Clouds
3:35 AM 50.0 °F 42.8 °F 76% 29.94 in 10.0 mi NNW 12.7 mph 21.9 mph N/A   Clear
3:55 AM 50.0 °F 42.8 °F 76% 29.94 in 10.0 mi NNW 11.5 mph 20.7 mph N/A   Mostly Cloudy
4:15 AM 50.0 °F 42.8 °F 76% 29.93 in 10.0 mi North 10.4 mph - N/A   Scattered Clouds
4:35 AM 50.0 °F 42.8 °F 76% 29.93 in 10.0 mi North 10.4 mph - N/A   Clear
4:55 AM 50.0 °F 41.0 °F 71% 29.94 in 10.0 mi NNW 12.7 mph 25.3 mph N/A   Clear
5:15 AM 50.0 °F 41.0 °F 71% 29.94 in 10.0 mi North 10.4 mph 18.4 mph N/A   Scattered Clouds
5:35 AM 50.0 °F 41.0 °F 71% 29.95 in 10.0 mi North 6.9 mph 20.7 mph N/A   Clear
6:15 AM 50.0 °F 39.2 °F 66% 29.97 in 10.0 mi North 8.1 mph 17.3 mph N/A   Clear
6:35 AM 50.0 °F 39.2 °F 66% 29.97 in 10.0 mi North 8.1 mph - N/A   Clear
6:55 AM 50.0 °F 39.2 °F 66% 29.98 in 10.0 mi NNW 11.5 mph 16.1 mph N/A   Clear
7:15 AM 48.2 °F 37.4 °F 66% 29.99 in 10.0 mi NNW 11.5 mph 16.1 mph N/A   Clear
7:55 AM 50.0 °F 37.4 °F 62% 30.02 in 10.0 mi NNW 10.4 mph 17.3 mph N/A   Clear
8:15 AM 50.0 °F 37.4 °F 62% 30.03 in 10.0 mi NNW 6.9 mph 17.3 mph N/A   Clear
8:35 AM 50.0 °F 37.4 °F 62% 30.04 in 10.0 mi NNW 3.5 mph - N/A   Clear
8:55 AM 50.0 °F 39.2 °F 66% 30.04 in 10.0 mi NNW 8.1 mph - N/A   Clear
9:15 AM 51.8 °F 39.2 °F 62% 30.05 in 10.0 mi NNW 11.5 mph 17.3 mph N/A   Clear
9:35 AM 51.8 °F 41.0 °F 67% 30.05 in 10.0 mi NNW 11.5 mph 19.6 mph N/A   Clear
10:15 AM 53.6 °F 41.0 °F 62% 30.04 in 10.0 mi NNW 13.8 mph 19.6 mph N/A   Clear
10:35 AM 53.6 °F 41.0 °F 62% 30.06 in 10.0 mi NNW 12.7 mph 21.9 mph N/A   Clear
10:55 AM 55.4 °F 39.2 °F 54% 30.06 in 10.0 mi NW 13.8 mph 17.3 mph N/A   Clear
11:15 AM 55.4 °F 39.2 °F 54% 30.06 in 10.0 mi NNW 15.0 mph 21.9 mph N/A   Clear
11:35 AM 55.4 °F 39.2 °F 54% 30.06 in 10.0 mi NW 13.8 mph 20.7 mph N/A   Clear
11:55 AM 55.4 °F 39.2 °F 54% 30.07 in 10.0 mi NNW 13.8 mph 21.9 mph N/A   Clear
12:15 PM 59.0 °F 41.0 °F 51% 30.07 in 10.0 mi NNW 16.1 mph 21.9 mph N/A   Clear
12:35 PM 59.0 °F 41.0 °F 51% 30.06 in 10.0 mi NW 17.3 mph 27.6 mph N/A   Clear
12:55 PM 59.0 °F 39.2 °F 48% 30.07 in 10.0 mi NNW 17.3 mph 27.6 mph N/A   Clear
1:15 PM 59.0 °F 39.2 °F 48% 30.06 in 10.0 mi NW 19.6 mph 25.3 mph N/A   Scattered Clouds
1:35 PM 59.0 °F 41.0 °F 51% 30.06 in 10.0 mi NNW 16.1 mph 21.9 mph N/A   Scattered Clouds
2:15 PM 59.0 °F 37.4 °F 45% 30.05 in 10.0 mi NW 21.9 mph 29.9 mph N/A   Clear
2:35 PM 60.8 °F 39.2 °F 45% 30.06 in 10.0 mi NNW 15.0 mph 23.0 mph N/A   Scattered Clouds
3:15 PM 60.8 °F 39.2 °F 45% 30.04 in 10.0 mi NNW 16.1 mph 25.3 mph N/A   Clear
3:35 PM 60.8 °F 37.4 °F 42% 30.04 in 10.0 mi NW 13.8 mph 28.8 mph N/A   Clear
3:55 PM 60.8 °F 37.4 °F 42% 30.04 in 10.0 mi NW 9.2 mph 26.5 mph N/A   Clear
4:15 PM 60.8 °F 35.6 °F 39% 30.03 in 10.0 mi NNW 19.6 mph 32.2 mph N/A   Clear
4:35 PM 60.8 °F 37.4 °F 42% 30.03 in 10.0 mi NNW 20.7 mph 35.7 mph N/A   Clear
4:55 PM 60.8 °F 37.4 °F 42% 30.03 in 10.0 mi NNW 17.3 mph 28.8 mph N/A   Clear
5:15 PM 60.8 °F 37.4 °F 42% 30.03 in 10.0 mi NNW 15.0 mph 25.3 mph N/A   Clear
5:35 PM 60.8 °F 37.4 °F 42% 30.03 in 10.0 mi NNW 16.1 mph 24.2 mph N/A   Clear
5:55 PM 60.8 °F 37.4 °F 42% 30.04 in 10.0 mi NW 17.3 mph 26.5 mph N/A   Scattered Clouds
6:15 PM 60.8 °F 35.6 °F 39% 30.04 in 10.0 mi NNW 15.0 mph 24.2 mph N/A   Clear
6:35 PM 59.0 °F 35.6 °F 42% 30.04 in 10.0 mi NNW 12.7 mph 20.7 mph N/A   Clear
6:55 PM 59.0 °F 33.8 °F 39% 30.06 in 10.0 mi NNW 12.7 mph 25.3 mph N/A   Clear
7:15 PM 59.0 °F 33.8 °F 39% 30.06 in 10.0 mi NW 12.7 mph 20.7 mph N/A   Clear
7:35 PM 57.2 °F 35.6 °F 44% 30.06 in 10.0 mi NNW 9.2 mph 18.4 mph N/A   Clear
7:55 PM 55.4 °F 35.6 °F 47% 30.06 in 10.0 mi NNW 13.8 mph 19.6 mph N/A   Clear
8:15 PM 55.4 °F 35.6 °F 47% 30.07 in 10.0 mi NNW 18.4 mph 23.0 mph N/A   Clear
8:35 PM 53.6 °F 35.6 °F 51% 30.08 in 10.0 mi NW 11.5 mph 18.4 mph N/A   Clear
8:55 PM 53.6 °F 35.6 °F 51% 30.09 in 10.0 mi NNW 12.7 mph 25.3 mph N/A   Clear
9:15 PM 53.6 °F 35.6 °F 51% 30.09 in 10.0 mi NNW 11.5 mph 17.3 mph N/A   Clear
9:35 PM 51.8 °F 35.6 °F 54% 30.11 in 10.0 mi NNW 9.2 mph - N/A   Clear
9:55 PM 51.8 °F 35.6 °F 54% 30.12 in 10.0 mi NNW 9.2 mph - N/A   Clear
10:15 PM 51.8 °F 35.6 °F 54% 30.13 in 10.0 mi NNW 9.2 mph - N/A   Clear
10:35 PM 50.0 °F 35.6 °F 58% 30.13 in 10.0 mi NW 10.4 mph - N/A   Clear
10:55 PM 50.0 °F 35.6 °F 58% 30.13 in 10.0 mi NNW 8.1 mph 17.3 mph N/A   Clear
11:15 PM 50.0 °F 33.8 °F 54% 30.14 in 10.0 mi NW 5.8 mph - N/A   Clear
11:35 PM 50.0 °F 33.8 °F 54% 30.14 in 10.0 mi NNW 9.2 mph - N/A   Clear
11:55 PM 48.2 °F 33.8 °F 58% 30.15 in 10.0 mi NW 4.6 mph - N/A   Clear